STARLINK-11610, 63135

Orbit data source: Space-Track

STARLINK-11610, 63135 is a payload satellite owned by SpaceX/Seattle (US) in LEO that was launched on Mon, 03 Mar 2025 UTC via an FALCON 9 launch vehicle from the Air Force Eastern Test Range (AFETR). Payload-class satellites include a variety of spacecraft equipped with specific instruments for various scientific and technological missions. These include communications satellites like Starlink; space stations such as the ISS; scientific satellites like the Hubble; Earth observation satellites from companies like Planet Labs, Umbra, and HawkEye 360; GPS; miniature CubeSats for education and research; and military/defense satellites.

Loading next visibility...
Identifier
63135, 2025-043D
Orbit
LEO
Country
Flag of USUS
Related business
Manufacturer
SpaceX/Seattle
Mission
Operational Commercial Communications
Bus & Motor
STARLINK V2MD, Unknown motor
Mass
960 kg wet, ~910 kg dry
Launch date (UTC)
2025-03-03 (6 months ago)
Launch vehicle
FALCON 9
Launch site
Air Force Eastern Test Range (AFETR)
Object type
Payload
Rocket body
Debris
Shape & HBR
Box + 2 Pan, 14.5 m
Radar Cross Section
36.964 m², Large (>1 m²)

Expand to show TLE details & history
Last TLE update: 7 hours ago

TLE from 7 hours ago
0 STARLINK-11610
1 63135U 25043D   25258.60963990  .00298031  00000-0  22321-2 0  9991
2 63135  42.9992 226.3052 0002215 282.7738  77.2882 15.70964382 31814
Epoch: 2025-09-15T14:37Z
TLE epoch observation values (Epoch: 2025-09-15T14:37:52.887Z)
Latitude
-0.00002°
Longitude
12.02299°
Altitude
355.583 km
Speed
7.698 km/s
True Right ascension
15h 05m 13s
True Declination
0° 00' 00"
Sunlit
Object was in daylight at epoch
Visualization orbit readout
Latitude
Unknown
Longitude
Unknown
Altitude
Unknown
Speed
Unknown
Apparent Right ascension
Unknown
Apparent Declination
Unknown
Sunlit
N/A
Visualization observer readout
Local Sidereal Time
14:41:39
Azimuth
Unknown
Elevation
Unknown
Doppler factor
Unknown
Orbital elements
Apogee altitude
359.613 km
Perigee altitude
356.629 km
Semi-major axis
6,736.258 km
Eccentricity
0.00022
Inclination
42.9992°
RAAN
226.3052°
Arg. of periapsis
282.7738°
True anomaly
77.31296°
Mean anomaly
77.2882°
Eccentric anomaly
77.30058°
Mean motion
3.92568 °/min
Orbital period
91.7 mins
BSTAR
0.0022321
Loading maneuver chart data...
Computing Atmospheric mass density...
Loading historical data...
Loading historical data...
Loading historical data...
Loading historical data...
Loading historical data...
Loading historical data...
Loading historical data...

Documentation

Showing up to 5 results
|